Location: Newark
(17.9939°S, 31.0481°E)
Time: 00:42:34
(UTC+00:00)

Courier 1B - Pass Details

Date: 13 November 2019
Orbit: 963 x 1209 km, 28.3° (Epoch: 12 December)

Event Time Altitude Azimuth Distance (km) Brightness Sun altitude
Exits shadow 00:21:01 22° 56° (NE) 2,142 9.3 -36.6°
Drops below altitude 10° 00:23:13 10° 58° (ENE) 2,876 10.1 -36.2°
Sets 00:25:52 0° 60° (ENE) 3,792 10.8 -35.7°
